Naples, Italy

2:28 AM CEST on September 01, 2016 (GMT +0200)
Capodichino Mil

Weather History for LIRN - December, 2011

Change the Weather History Date:

Thursday, December 22, 2011

  Actual Average Record
Temperature  
Mean Temperature 45 °F -  
Max Temperature 51 °F 55 °F 66 °F (1996)
Min Temperature 39 °F 40 °F 35 °F (2005)
Degree Days  
Heating Degree Days 20    
Moisture  
Dew Point 30 °F    
Average Humidity 55    
Maximum Humidity 70    
Minimum Humidity 35    
Precipitation  
Precipitation 0.00 in 0.14 in - ()
Sea Level Pressure  
Sea Level Pressure 29.97 in    
Wind  
Wind Speed 9 mph ()    
Max Wind Speed 21 mph    
Max Gust Speed 32 mph    
Visibility 6.2 miles    
Events      
Averages and records for this station are not official NWS values.
T = Trace of Precipitation, MM = Missing Value Source: Averaged Metar Reports

Daily Weather History Graph

Daily Weather History Graph

Search for Another Location

Airport or City:

Trip Planner

Search our weather history database for the weather conditions in past years. The results will help you decide how hot, cold, wet, or windy it might be!

Date:

Astronomy

Dec. 22, 2011 Rise Set
Actual Time 7:24 AM CET 4:38 PM CET
Civil Twilight 6:53 AM CET 5:09 PM CET
Nautical Twilight 6:18 AM CET 5:44 PM CET
Astronomical Twilight 5:45 AM CET 6:17 PM CET
Moon 4:47 AM CET (12/22) 2:33 PM CET (12/22)
Length of Visible Light 10h 16m
Length of Day
9h 14m
Waning Crescent, 7% of the Moon is Illuminated
Dec 22
Waning Crescent
Dec 24
New
Jan 1
First Quarter
Jan 9
Full
Jan 16
Last Quarter

Hourly Weather History & Observations

Time (CET) Temp. Windchill Dew Point Humidity Pressure Visibility Wind Dir Wind Speed Gust Speed Precip Events Conditions
12:20 AM 42.8 °F 40.1 °F 32.0 °F 66% 29.92 in - NNE 4.6 mph - N/A   Clear
12:50 AM 44.6 °F 40.2 °F 32.0 °F 61% 29.89 in - North 8.1 mph - N/A   Clear
1:20 AM 44.6 °F 40.2 °F 32.0 °F 61% 29.89 in - North 8.1 mph - N/A   Clear
1:50 AM 44.6 °F 40.7 °F 32.0 °F 61% 29.89 in - NNW 6.9 mph - N/A   Clear
2:20 AM 44.6 °F 40.7 °F 32.0 °F 61% 29.89 in - NNW 6.9 mph - N/A   Clear
2:50 AM 44.6 °F 41.4 °F 32.0 °F 61% 29.92 in - NNW 5.8 mph - N/A   Clear
3:20 AM 44.6 °F 40.7 °F 32.0 °F 61% 29.92 in - North 6.9 mph - N/A   Clear
3:50 AM 42.8 °F 38.6 °F 32.0 °F 66% 29.92 in - North 6.9 mph - N/A   Clear
4:20 AM 42.8 °F 38.6 °F 32.0 °F 66% 29.92 in - NNE 6.9 mph - N/A   Clear
4:50 AM 46.4 °F 40.4 °F 32.0 °F 57% 29.92 in - NNE 13.8 mph - N/A   Clear
5:20 AM 44.6 °F 38.1 °F 32.0 °F 61% 29.92 in 6.2 mi NNE 13.8 mph - N/A   Scattered Clouds
5:50 AM 44.6 °F 39.7 °F 32.0 °F 61% 29.92 in 6.2 mi NNE 9.2 mph - N/A   Scattered Clouds
6:20 AM 44.6 °F 39.7 °F 30.2 °F 57% 29.95 in 6.2 mi NNE 9.2 mph - N/A   Scattered Clouds
6:50 AM 44.6 °F 39.7 °F 30.2 °F 57% 29.95 in 6.2 mi North 9.2 mph - N/A   Scattered Clouds
7:20 AM 42.8 °F 38.0 °F 30.2 °F 61% 29.95 in 6.2 mi NW 8.1 mph - N/A   Partly Cloudy
7:50 AM 41.0 °F 34.3 °F 32.0 °F 70% 29.95 in 6.2 mi NNW 11.5 mph - N/A   Scattered Clouds
8:20 AM 42.8 °F 37.0 °F 32.0 °F 66% 29.95 in 6.2 mi NNW 10.4 mph - N/A   Partly Cloudy
8:50 AM 42.8 °F 35.8 °F 32.0 °F 66% 29.98 in 6.2 mi North 13.8 mph - N/A   Partly Cloudy
9:20 AM 44.6 °F 37.2 °F 33.8 °F 66% 29.98 in 6.2 mi NNW 17.3 mph - N/A   Partly Cloudy
9:50 AM 44.6 °F 37.8 °F 33.8 °F 66% 29.98 in 6.2 mi North 15.0 mph - N/A   Partly Cloudy
10:20 AM 46.4 °F 40.4 °F 32.0 °F 57% 29.98 in - North 13.8 mph - N/A   Clear
10:50 AM 46.4 °F 40.7 °F 33.8 °F 62% 29.95 in - NNW 12.7 mph - N/A   Clear
11:20 AM 50.0 °F - 30.2 °F 47% 29.95 in 6.2 mi NNW 13.8 mph - N/A   Partly Cloudy
11:50 AM 51.8 °F - 24.8 °F 35% 29.95 in 6.2 mi North 16.1 mph - N/A   Partly Cloudy
12:20 PM 51.8 °F - 24.8 °F 35% 29.95 in 6.2 mi North 16.1 mph 28.8 mph N/A   Scattered Clouds
12:50 PM 50.0 °F - 30.2 °F 47% 29.95 in 6.2 mi NNW 17.3 mph 31.1 mph N/A   Partly Cloudy
1:20 PM 50.0 °F - 30.2 °F 47% 29.95 in 6.2 mi NNW 17.3 mph 29.9 mph N/A   Scattered Clouds
1:50 PM 48.2 °F - 32.0 °F 54% 29.95 in 6.2 mi NNW 20.7 mph 32.2 mph N/A   Scattered Clouds
2:20 PM 48.2 °F - 30.2 °F 50% 29.95 in 6.2 mi North 15.0 mph - N/A   Scattered Clouds
2:50 PM 46.4 °F 39.8 °F 30.2 °F 53% 29.95 in 6.2 mi North 16.1 mph - N/A   Scattered Clouds
3:20 PM 46.4 °F 40.7 °F 30.2 °F 53% 29.98 in 6.2 mi North 12.7 mph - N/A   Scattered Clouds
3:50 PM 46.4 °F 40.1 °F 30.2 °F 53% 29.98 in 6.2 mi NE 15.0 mph - N/A   Scattered Clouds
4:20 PM 46.4 °F 40.1 °F 30.2 °F 53% 29.98 in 6.2 mi NNE 15.0 mph - N/A   Scattered Clouds
4:50 PM 46.4 °F 39.2 °F 28.4 °F 50% 29.98 in 6.2 mi NNE 18.4 mph - N/A   Scattered Clouds
5:20 PM 46.4 °F 40.1 °F 28.4 °F 50% 29.98 in 6.2 mi North 15.0 mph - N/A   Scattered Clouds
5:50 PM 46.4 °F 41.9 °F 28.4 °F 50% 30.01 in 6.2 mi NNE 9.2 mph - N/A   Scattered Clouds
6:20 PM 44.6 °F 42.2 °F 26.6 °F 49% 30.01 in 6.2 mi North 4.6 mph - N/A   Partly Cloudy
6:50 PM 44.6 °F 42.2 °F 26.6 °F 49% 30.01 in 6.2 mi North 4.6 mph - N/A   Partly Cloudy
7:20 PM 44.6 °F 41.4 °F 26.6 °F 49% 30.01 in 6.2 mi North 5.8 mph - N/A   Partly Cloudy
7:50 PM 42.8 °F - 26.6 °F 53% 30.01 in - Variable 1.2 mph - N/A   Clear
8:20 PM 42.8 °F 41.1 °F 26.6 °F 53% 30.04 in - North 3.5 mph - N/A   Clear
8:50 PM 44.6 °F 42.2 °F 26.6 °F 49% 30.04 in - SSW 4.6 mph - N/A   Clear
9:20 PM 41.0 °F - 24.8 °F 53% 30.04 in - Variable 2.3 mph - N/A   Clear
9:50 PM 42.8 °F - 24.8 °F 49% 30.04 in - Variable 2.3 mph - N/A   Clear
10:20 PM 42.8 °F 41.1 °F 26.6 °F 53% 30.04 in - SW 3.5 mph - N/A   Clear
10:50 PM 39.2 °F - 24.8 °F 56% 30.04 in - West 2.3 mph - N/A   Clear
11:20 PM 42.8 °F 39.3 °F 26.6 °F 53% 30.04 in - NNW 5.8 mph - N/A   Clear
11:50 PM 44.6 °F 40.7 °F 26.6 °F 49% 30.04 in - NNW 6.9 mph - N/A   Clear